"Pseudo-MPEC" for P10PKVT

Created 2019 Jul 13 13:07:11 UT using Find_Orb

Click here for an explanation of pseudo-MPECs

 
 Astrometry: 
     P10PKVT  C2019 07 10_9DWZAstrometryld]4X_SEx-pqV742mAPsaBZT^?m(v'N:dbM#pF51
     P10PKVT  C2019 07 10L#BsuRd/XQoQ8k1FO+m1[u9P_#=L)?)Kl%XVhv4?E@2j+2s6*r!DF51
     P10PKVT  C2019 07 10H:%W.P/3BhEyWvgPredacted;u-fmO_)UDUVBWJB\\D2e2UT1.e-F51
     P10PKVT  C2019 07 10u;)]XIPa.YRiLNFclickPJ]2L[E8ml%.1f]LI@^rpE[*;gMgsf0PF51
     P10PKVT ^C2019 07 12.51943322 15 06.330-11 55 46.23   ~7CHb 21.88GVNEOCP568
     P10PKVT ^C2019 07 12.52061822 15 06.299-11 55 47.53   ~7CHb 21.90GVNEOCP568
     P10PKVT ^C2019 07 12.52180122 15 06.269-11 55 48.79   ~7CHb 21.90GVNEOCP568
     P10PKVT KC2019 07 139lO+9Owherer7._O4.oM'@r$4)QUE$s25$%[S0t]-formNo,#]:MH21
     P10PKVT KC2019 07 130uG]7KqAV@ZRIXW^1gYHNww25'EVNexplanation\Gy-B/4cDh;GH21

Station data:
(568) Mauna Kea  (N19.826116 W155.472200)  US/Hawaii.
(F51) Pan-STARRS 1, Haleakala  (N20.707235 W156.255910)  US/Hawaii.
   Observers N. Primak, A. Schultz, S. Watters, J. Thiel, T. Goggia. Measurer
   PS1 Science Consortium. 1.8-m Ritchey-Chrétien + CCD.
(H21) Astronomical Research Observatory, Westfield  (N39.483057 W87.968270)
   US/Illinois. 0.76-m f/3.0 astrograph + CCD.

Orbital elements:  P10PKVT
   Perihelion 2019 Jan 13.522882 +/- 9.01 TT = 12:32:57 (JD 2458497.022882)
Epoch 2019 Jul 13.0 TT = JDT 2458677.5   Earth MOID: 0.7380   AutoNEOCP
M  40.86794755 +/- 4.2              (J2000 ecliptic)
n   0.22644392 +/- 0.0128           Peri.   92.53502 +/- 1.9
a   2.66580838 +/- 0.101            Node   131.74511 +/- 0.32
e   0.4363680 +/- 0.0272            Incl.   26.94091 +/- 1.0
P   4.35                   H 19.2   G  0.15   U  9.8  
q 1.50253480 +/- 0.0251    Q 3.82908195 +/- 0.207
From 9 observations 2019 July 10-13; mean residual 0".12
Residuals in arcseconds: 
190710 F51  .15+  .20+    190710 F51  .13+  .03-    190712 568  .01-  .00     
190710 F51  .02+  .22-    190712 568  .01+  .01+    190713 H21  .16+  .01-    
190710 F51  .30-  .04+    190712 568  .01-  .01-    190713 H21  .16-  .01+    

Ephemerides (geocentric):
Date (UTC) HH   RA              Dec         delta   r     elong  mag " sig PA
---- -- -- --  -------------   -----------  ------ ------ -----  --- ---- ---
2019 07 13 13  22 14 42.382   -12 14 08.49  1.2672 2.1437 139.4 22.3 .449 121
2019 07 13 14  22 14 41.368   -12 14 53.88  1.2671 2.1439 139.5 22.3 .481 121
2019 07 13 15  22 14 40.351   -12 15 39.28  1.2670 2.1441 139.5 22.3 .514 120
2019 07 13 16  22 14 39.330   -12 16 24.71  1.2668 2.1443 139.5 22.3 .548 120
2019 07 13 17  22 14 38.306   -12 17 10.16  1.2667 2.1445 139.6 22.3 .583 119
2019 07 13 18  22 14 37.278   -12 17 55.64  1.2666 2.1448 139.6 22.3 .618 119
2019 07 13 19  22 14 36.248   -12 18 41.14  1.2665 2.1450 139.7 22.3 .654 119
2019 07 13 20  22 14 35.214   -12 19 26.66  1.2664 2.1452 139.7 22.3 .691 118
2019 07 13 21  22 14 34.177   -12 20 12.20  1.2663 2.1454 139.8 22.3 .729 118
2019 07 13 22  22 14 33.136   -12 20 57.77  1.2662 2.1456 139.8 22.3 .767 118
2019 07 13 23  22 14 32.092   -12 21 43.37  1.2660 2.1458 139.9 22.3 .807 117
2019 07 14 00  22 14 31.045   -12 22 28.98  1.2659 2.1460 139.9 22.3 .846 117
2019 07 14 01  22 14 29.995   -12 23 14.62  1.2658 2.1463 140.0 22.3 .887 117
2019 07 14 02  22 14 28.942   -12 24 00.28  1.2657 2.1465 140.0 22.3 .929 117
2019 07 14 03  22 14 27.885   -12 24 45.97  1.2656 2.1467 140.1 22.3 .971 117
2019 07 14 04  22 14 26.825   -12 25 31.67  1.2655 2.1469 140.1 22.3 1.01 116
2019 07 14 05  22 14 25.762   -12 26 17.41  1.2654 2.1471 140.2 22.3 1.06 116
2019 07 14 06  22 14 24.695   -12 27 03.16  1.2652 2.1473 140.2 22.3 1.10 116
2019 07 14 07  22 14 23.625   -12 27 48.94  1.2651 2.1475 140.3 22.3 1.15 116
2019 07 14 08  22 14 22.552   -12 28 34.74  1.2650 2.1477 140.3 22.3 1.19 116
2019 07 14 09  22 14 21.476   -12 29 20.56  1.2649 2.1480 140.4 22.3 1.24 116
2019 07 14 10  22 14 20.396   -12 30 06.40  1.2648 2.1482 140.4 22.3 1.29 116
2019 07 14 11  22 14 19.313   -12 30 52.27  1.2647 2.1484 140.5 22.2 1.33 116
2019 07 14 12  22 14 18.227   -12 31 38.16  1.2646 2.1486 140.5 22.2 1.38 116
2019 07 14 13  22 14 17.138   -12 32 24.07  1.2645 2.1488 140.6 22.2 1.43 116
2019 07 14 14  22 14 16.045   -12 33 10.01  1.2644 2.1490 140.6 22.2 1.48 116
2019 07 14 15  22 14 14.950   -12 33 55.97  1.2643 2.1492 140.7 22.2 1.53 115
2019 07 14 16  22 14 13.851   -12 34 41.95  1.2642 2.1494 140.7 22.2 1.59 115
2019 07 14 17  22 14 12.748   -12 35 27.95  1.2640 2.1497 140.7 22.2 1.64 115
2019 07 14 18  22 14 11.643   -12 36 13.98  1.2639 2.1499 140.8 22.2 1.69 115
2019 07 14 19  22 14 10.534   -12 37 00.02  1.2638 2.1501 140.8 22.2 1.75 115
2019 07 14 20  22 14 09.422   -12 37 46.09  1.2637 2.1503 140.9 22.2 1.80 115
2019 07 14 21  22 14 08.307   -12 38 32.18  1.2636 2.1505 140.9 22.2 1.86 115
2019 07 14 22  22 14 07.188   -12 39 18.30  1.2635 2.1507 141.0 22.2 1.91 115
2019 07 14 23  22 14 06.067   -12 40 04.43  1.2634 2.1509 141.0 22.2 1.97 115
2019 07 15 00  22 14 04.942   -12 40 50.59  1.2633 2.1511 141.1 22.2 2.03 115
2019 07 15 01  22 14 03.814   -12 41 36.77  1.2632 2.1514 141.1 22.2 2.08 115
2019 07 15 02  22 14 02.682   -12 42 22.98  1.2631 2.1516 141.2 22.2 2.14 115
2019 07 15 03  22 14 01.548   -12 43 09.20  1.2630 2.1518 141.2 22.2 2.20 115
2019 07 15 04  22 14 00.410   -12 43 55.45  1.2629 2.1520 141.3 22.2 2.26 115
2019 07 15 05  22 13 59.269   -12 44 41.71  1.2628 2.1522 141.3 22.2 2.32 115
2019 07 15 06  22 13 58.125   -12 45 28.00  1.2627 2.1524 141.4 22.2 2.39 115
2019 07 15 07  22 13 56.977   -12 46 14.31  1.2626 2.1526 141.4 22.2 2.45 115
2019 07 15 08  22 13 55.827   -12 47 00.65  1.2625 2.1529 141.5 22.2 2.51 115
2019 07 15 09  22 13 54.673   -12 47 47.00  1.2624 2.1531 141.5 22.2 2.58 115
2019 07 15 10  22 13 53.516   -12 48 33.38  1.2623 2.1533 141.6 22.2 2.64 115
2019 07 15 11  22 13 52.355   -12 49 19.78  1.2622 2.1535 141.6 22.2 2.71 115
2019 07 15 12  22 13 51.192   -12 50 06.19  1.2621 2.1537 141.7 22.2 2.77 115